This demonstration page uses our WeatherBlox Daily Observations layout. Learn more.

Left ArrowRight Arrow

36.19886, -115.1175

Hourly Observations for February 6, 2021

Temp ( °F °C ) Dew Point ( °F °C ) Humidity (%) Winds ( mph kmh ) Pressure ( in mb ) Visibility ( mi km ) Precip ( " mm )
12:53 am 00:53 Clear 54 12.2 21 -6.1 28 28 NNW 13 20 30.08 1019 10 16 N/A
1:53 am 01:53 Clear 53 11.7 21 -6.1 28 28 NNW 7 11 30.06 1018 10 16 N/A
2:53 am 02:53 Clear 54 12.2 21 -6.1 28 28 NNW 6 9 30.08 1019 10 16 N/A
3:53 am 03:53 Clear 55 12.8 21 -6.1 26 26 N 15 24 30.08 1019 10 16 N/A
4:53 am 04:53 Clear 51 10.6 21 -6.1 31 31 W 7 11 30.10 1019 10 16 N/A
5:53 am 05:53 Clear 47 8.3 22 -5.6 37 37 WSW 5 7 30.11 1020 10 16 N/A
6:53 am 06:53 Sunny 47 8.3 22 -5.6 37 37 NW 8 13 30.13 1020 10 16 N/A
7:53 am 07:53 Sunny 50 10 22 -5.6 33 33 NW 10 17 30.15 1021 10 16 N/A
8:53 am 08:53 Sunny 56 13.3 21 -6.1 26 26 NNW 9 15 30.16 1021 10 16 N/A
9:53 am 09:53 Sunny 58 14.4 20 -6.7 23 23 E 3 6 30.16 1022 10 16 N/A
10:53 am 10:53 Sunny 59 15 21 -6.1 23 23 SE 7 11 30.15 1021 10 16 N/A
11:53 am 11:53 Sunny 62 16.7 20 -6.7 20 20 N N/A 30.12 1020 10 16 N/A
12:53 pm 12:53 Sunny 63 17.2 20 -6.7 19 19 S 3 6 30.07 1018 10 16 N/A
1:53 pm 13:53 Sunny 65 18.3 18 -7.8 16 16 N N/A 30.04 1017 10 16 N/A
2:53 pm 14:53 Sunny 66 18.9 18 -7.8 16 16 VRB 3 6 30.01 1016 10 16 N/A
3:53 pm 15:53 Sunny 67 19.4 20 -6.7 17 17 S 8 13 29.98 1015 10 16 N/A
4:53 pm 16:53 Sunny 66 18.9 19 -7.2 16 16 SSE 6 9 29.98 1015 10 16 N/A
5:53 pm 17:53 Clear 61 16.1 19 -7.2 20 20 NE 3 6 29.99 1016 10 16 N/A
6:53 pm 18:53 Clear 60 15.6 19 -7.2 20 20 N N/A 29.99 1016 10 16 N/A
7:53 pm 19:53 Clear 54 12.2 22 -5.6 29 29 NW 5 7 30.00 1016 10 16 N/A
8:53 pm 20:53 Clear 53 11.7 24 -4.4 32 32 W 7 11 29.99 1016 10 16 N/A
9:53 pm 21:53 Clear 51 10.6 23 -5 33 33 N N/A 30.00 1016 10 16 N/A
10:53 pm 22:53 Clear 48 8.9 22 -5.6 36 36 NW 6 9 29.99 1016 10 16 N/A
11:53 pm 23:53 Clear 48 8.9 22 -5.6 36 36 WNW 6 9 29.98 1015 10 16 N/A

Powered by AerisWeather